society6.com alexa rank chart, society6.com alexa rank daily changes

society6.com alexa rank chart, society6.com alexa rank daily changes

society6.com
Actual rank:
6 251

RANK HISTORY

Date Rank Diff
2017/02/22 6 251 -41
2017/02/21 6 292 -13
2017/02/20 6 305 -4
2017/02/19 6 309 +40
2017/02/18 6 269 +31
2017/02/17 6 238 +30
2017/02/16 6 208 +49
2017/02/15 6 159 -48
2017/02/14 6 207 +2
2017/02/13 6 205 +7
2017/02/12 6 198 +10
2017/02/11 6 188 +13
2017/02/10 6 175 +31
2017/02/09 6 144 +14
2017/02/08 6 130 +16
2017/02/07 6 114 +18
2017/02/06 6 096 -20
2017/02/05 6 116 -46
2017/02/04 6 162 -25
2017/02/03 6 187 +3
2017/02/02 6 184 -42
2017/01/31 6 226 +2
2017/01/30 6 224 +26
2017/01/29 6 198 +11
2017/01/28 6 187 +18
2017/01/27 6 169 +49
2017/01/26 6 120 +21
2017/01/25 6 099 +10
2017/01/24 6 089 +28
2017/01/23 6 061 -2
2017/01/22 6 063 +52
2017/01/21 6 011 +39
2017/01/20 5 972 +77
2017/01/19 5 895 +80
2017/01/18 5 815 +10
2017/01/17 5 805 +16
2017/01/16 5 789 +2
2017/01/15 5 787 +57
2017/01/14 5 730 +87
2017/01/13 5 643 +22
2017/01/12 5 621 -14
2017/01/11 5 635 +28
2017/01/10 5 607 -6
2017/01/09 5 613 +21
2017/01/08 5 592 +42
2017/01/07 5 550 +3
2017/01/06 5 547 +27
2017/01/05 5 520 +89
2017/01/04 5 431 +47
2017/01/03 5 384 -6
2017/01/02 5 390 +66
2017/01/01 5 324 +26
2016/12/31 5 298 +36
2016/12/30 5 262 +81
2016/12/29 5 181 +28
2016/12/28 5 153 +86
2016/12/27 5 067 +88
2016/12/26 4 979 +53
2016/12/25 4 926 +9
2016/12/24 4 917

WIDGET FOR YOUR SITE

DOMAINS WITH THE NEAREST RANK

Domain Rank
clkntrk.com 6 246
koimoi.com 6 247
gamebase.com.tw 6 248
animoto.com 6 249
telerama.fr 6 250
society6.com 6 251
grid.mk 6 252
babyou.com 6 253
fronter.com 6 254
speedbit.com 6 255
dnevnik.hr 6 256

DOMAINS WITH THE NEAREST RANK BY TLD .com

Domain Rank
naviance.com 6 242
linkbucks.com 6 244
clkntrk.com 6 246
koimoi.com 6 247
animoto.com 6 249
society6.com 6 251
babyou.com 6 253
fronter.com 6 254
speedbit.com 6 255
nordvpn.com 6 257
qiqrguvdhcux.com 6 260